Погода Лешуконское

Погода Лешуконское : погода сейчас, прогноз погоды и архив. Всё, что Вы хотите узнать о погоде Лешуконское!

Поиск расширенной информации на нашем сайте:

Другие новости

Новости СМИ2

Главная страница сайта

Новости сайта

03.07.2017

Напоминаем, что на нашем специализированном сайте Метеоцентр.Азия вы можете получить высокодетализированные автоматические прогнозы погоды по пунктам России, СНГ и мира в авиационном формате (включающие направление и скорость ветра, видимость, явления погоды, количество и форму облачности, нижнюю и верхнюю границу облачности).


Погода Лешуконское - сегодня

Время (UTC), дата Ветер
(°,м/с) 
Видим.   Явления Облачность Т
(°С)
Тd
(°С)
f(%) Тe
(°С)
Pmin
(гПа)
dP
(гПа)
Po
(мм)
O2
(г/м3)
Тmin Tmax R s Состояние
почвы
06 10.12.17 130 (ЮВ) 20000 м    9/9 720 м 
[Sc]
-10.3 -11.6 90 -13  1018.1  0.7  757  318           
09 10.12.17 130 (ЮВ) 20000 м    9/9 1050 м 
[Sc]
-9.9 -11.6 87 -14  1018.5  0.4  757  318           
12 10.12.17 120 (ЮВ) 20000 м    9/9 930 м 
[Sc]
-9.5 -11.1 88 -12  1018.9  0.4  757  317           
15 10.12.17 110 (В) 20000 м    9/4 600 м средняя 
[Sc|Ac trans]
-9.3 -10.9 88 -12  1018.7  -0.2  757  317    -8.8       
18 10.12.17 110 (В) 20000 м    9/4 600 м средняя 
[Sc|Ac trans]
-8.9 -10.9 85 -12  1018.5  -0.2  757  316           
21 10.12.17 120 (ЮВ) 20000 м    9/0 средняя 
[Ac trans]
-8.9 -10.9 85 -13  1018  -0.5  756  316           
00 11.12.17 110 (В) 20000 м    9/0 средняя 
[Ac trans]
-8.2 -10.1 86 -13  1017.8  -0.2  756  315           
03 11.12.17 120 (ЮВ) 20000 м    9/0 средняя 
[Ac trans]
-7.6 -9.4 87 -11  1016.4  -1.2  755  314  -9.3      24  равномерный
сухой снег
100% 
06 11.12.17 120 (ЮВ) 20000 м    10/10 240 м 
[St]
-6.6 -8.6 86 -11  1016.3  -0.1  755  313           
09 11.12.17 110 (В) 5{11}  20000 м    10/4 300 м средняя 
[Frnb|Ac trans]
-4.8 -6.5 88 -9  1016.4  0.1  755  311           
12 11.12.17 110 (В) 6{10}  20000 м  позёмок  9/6 1300 м средняя 
[Sc|Ac trans]
-3.6 -5.8 85 -8  1015.5  -0.9  755  309           
15 11.12.17 100 (В) 6{11}  20000 м  слаб. ливневой дождь  10/4 300 м кучево-дожд., средняя 
[Cb cap|Ac trans]
-3.2 -5.3 85 -7  1014.9  -0.6  754  308    -2.8  0.9     
18 11.12.17 110 (В) 5{11}  20000 м  {ливн. осадки} [диам. гололёда 1 мм]  10/10 240 м 
[St]
-3.2 -4.9 88 -7  1015.6  0.7  755  308           
21 11.12.17 120 (ЮВ) 20000 м  [диам. гололёда 1 мм]  10/10 210 м 
[St]
-3.5 -4.6 92 -7  1016.1  0.5  755  309           
00 12.12.17 120 (ЮВ) 20000 м  [диам. гололёда 1 мм]  10/10 210 м 
[St]
-4.4 -5.3 93 -8  1016.8  0.7  756  310           
03 12.12.17 130 (ЮВ) 20000 м  [диам. гололёда 1 мм]  10/10 210 м 
[St]
-4.3 -5.5 91 -7  1017  0.2  756  310  -4.8    0.0  24  равномерный
сухой снег
100% 
06 12.12.17 120 (ЮВ) 20000 м  [диам. гололёда 1 мм]  10/10 180 м 
[St]
-4.4 -5.7 91 -8  1017.7  0.7  756  310           
09 12.12.17 130 (ЮВ) 20000 м  [диам. гололёда 1 мм]  10/10 150 м 
[St]
-4.9 -5.9 93 -7  1018.8  1.1  757  311           
12 12.12.17 120 (ЮВ) 10 км  [диам. гололёда 1 мм]  10/10 180 м 
[St]
-5.3 -6 95 -8  1018.1  -0.7  757  312           
15 12.12.17 120 (ЮВ) 20000 м  [диам. гололёда 1 мм]  10/10 210 м 
[St]
-5.9 -7 92 -10  1018.1  757  312    -3.9       
18 12.12.17 120 (ЮВ) 5{10}  20000 м  [диам. гололёда 1 мм]  9/9 1080 м 
[Sc]
-5.2 -6.9 88 -9  1016.7  -1.4  756  311           
21 12.12.17 120 (ЮВ) 6{10}  20000 м    9/9 1000 м 
[Sc]
-4.6 -7 83 -9  1014.6  -2.1  754  310           
00 13.12.17 110 (В) 6{11}  20000 м    9/9 330 м 
[Sc]
-4.6 -6.6 86 -9  1011.8  -2.8  752  309           
03 13.12.17 120 (ЮВ) 8{16}  20000 м    9/9 450 м 
[Sc]
-3.6 -6.8 78 -9  1007.4  -4.3  749  306  -6      24  равномерный
сухой снег
100% 
06 13.12.17 120 (ЮВ) 8{15}  20000 м    9/9 360 м 
[Sc]
-3.6 -6.5 80 -9  1004.2  -3.2  746  305           
Время (UTC), дата Ветер
(°,м/с) 
Видим.   Явления Облачность Т
(°С)
Тd
(°С)
f(%) Тe
(°С)
Pmin
(гПа)
dP
(гПа)
Po
(мм)
O2
(г/м3)
Тmin Tmax R s Состояние
почвы

Для получения пояснительной информации подведите курсор к названию столбца.

ПОГОДА Лешуконское - архив

Всё, что Вы хотите узнать о погоде Лешуконское - удобно и подробно!

Выберите нужную дату (начиная с 1 января 2015* года) и нажмите кнопку "Найти".
Будут отображены архивные сводки погоды по пункту Лешуконское, начиная с указанной даты.


Отображать данные в формате CSV (для использования в таблицах Excel)


Внимание! Наш архив погоды предназначен исключительно для личного некоммерческого использования в познавательных целях. Если Вам необходимы официальные справки о состоянии погоды (для производственных, юридических, коммерческих и т.п. целей), обращайтесь в органы Росгидромета.

*Примечание: данная дата относится к архиву по метеостанциям СССР (Россия, СНГ, Балтия).
Архив по метеостанциям Зарубежной Европы и Азии (кроме Китая) хранится 10 дней, по другим регионам земного шара (Китай, Африка, Америка, Австралия, Океания) - 1 день.

Лешуконское - район местоположения метеостанции


Название, широта, долгота, высота метеостанции:
Лешуконское 64.9°ш. 45.8°д. 71 м над ур. моря [Российская Федерация]

Дополнительная информация

В oтличие oт бoльшинства пoгoдных сайтoв мы публикуем пoдрoбную метеoинфoрмацию в детальнoм прoфессиoнальнoм фoрмате.

Характеристики температуры и влажнoсти вoздуха измеряются на высoте 2 м в тени вдали oт зданий и деревьев.
Скoрoсть ветра измеряется на высoте 10 м (на урoвне рoста челoвека скoрoсть ветра ниже в 1.5-2 раза). Если метеoстанция нахoдится в гoрoде или в лесу, тo скoрoсть ветра занижена на 2-4 м/с пo сравнению с oткрытым местoм. Скoрoсть ветра над акватoриями крупных рек и oзёр, а также на вершинах хoлмoв на 2-5 м/с выше, чем в oбычных услoвиях.
Атмoсфернoе давление в разных тoчках местнoсти мoжет значительнo oтличаться oт давления на метеoстанции, в зависимoсти oт услoвий рельефа (при пoдъёме на 10 м давление пoнижается примернo на 1 мм рт.ст.).